Location: ??????????
(31.2156°N, 29.9553°E)
Time: 08:08:56
(UTC+00:00)

Cosmos 2242 Rocket - Pass Details

Date: 03 March 2021
Orbit: 617 x 652 km, 82.5° (Epoch: 15 April)

Event Time Altitude Azimuth Distance (km) Brightness Sun altitude
Rises 17:32:09 0° 354° (N) 2,939 7.2 -20.5°
Reaches altitude 10° 17:34:25 10° 355° (N) 2,021 6.3 -21.0°
Maximum altitude 17:38:54 87° 83° (E) 634 3.4 -21.9°
Enters shadow 17:41:42 22° 173° (S) 1,356 5.1 -22.5°
